RH
5 5 6 6 7 7 8 10 12 14 17 19 22 23 24 24 23 23 22 21 20 19 17 16 14 13 12 11 10 9 8 8 8 8 8 8 8 8 8 8 9 9 9 9 9 9 8 8 8 8 8 8 8 8 8 7 5 5 4 4 2 1 2 1 1 2 3 5 5 2 10 42 72 83 78 67 62 71 81 83 80 71 57 42 35 34 32 31
4 4 5 5 5 6 6 7 9 11 15 19 24 27 30 32 32 32 32 30 28 27 26 24 23 22 20 18 16 15 13 11 10 10 10 9 9 8 8 8 8 9 9 9 9 9 8 9 9 9 9 9 9 9 9 9 7 6 5 4 3 3 2 2 2 1 2 4 6 5 3 15 46 77 86 78 70 67 75 83 83 78 71 57 41 34 34 35
4 5 5 5 6 6 7 7 9 11 14 18 22 28 34 39 41 43 43 41 39 36 34 32 30 29 27 25 24 22 21 18 16 14 14 14 12 11 11 11 10 9 9 9 9 10 9 10 10 10 10 10 9 9 10 10 9 8 6 5 4 4 2 2 2 1 1 2 5 7 5 4 17 53 80 85 80 71 69 76 83 80 73 68 55 40 34 43
4 4 5 6 7 8 9 9 10 12 15 19 22 27 33 40 46 49 50 51 49 47 45 42 39 37 35 33 31 30 28 26 23 22 21 20 19 17 17 17 16 13 12 11 11 11 11 11 11 11 11 11 11 11 11 10 10 10 8 6 5 4 4 3 2 2 2 1 3 5 7 5 3 23 55 77 85 79 69 66 75 79 71 67 66 55 40 47
4 4 5 6 8 10 11 12 13 15 18 24 30 35 38 40 44 48 52 55 56 56 55 54 52 48 45 42 39 37 35 33 30 29 28 26 25 23 22 21 20 19 18 16 15 14 14 14 14 14 14 13 14 13 12 12 11 11 10 8 6 5 4 4 3 2 2 1 2 4 6 7 3 6 24 54 79 84 76 67 63 66 69 67 69 67 52 57
4 5 5 7 9 11 14 16 18 20 24 30 38 47 53 54 53 53 54 56 58 60 60 60 59 57 56 54 52 50 47 44 40 38 37 34 32 30 27 25 24 23 22 21 20 19 18 18 17 17 16 16 16 15 14 13 13 12 11 10 8 7 5 5 4 3 2 2 1 2 4 7 6 4 7 26 57 81 84 76 67 57 57 63 70 74 63 58
5 5 6 8 10 13 17 21 24 26 28 32 38 46 52 56 57 56 54 53 53 54 55 55 55 54 54 53 53 53 53 52 50 49 46 44 42 39 36 32 30 28 27 27 25 24 23 22 21 20 20 19 19 18 17 16 15 14 13 12 11 8 7 5 5 4 3 2 2 2 2 5 7 6 10 16 29 61 84 79 78 67 51 54 61 72 74 62
5 6 7 9 12 17 22 27 30 32 34 36 38 41 43 44 46 48 48 47 45 43 42 41 41 41 41 42 42 43 44 47 48 49 49 49 48 47 45 42 39 37 35 33 31 30 29 27 27 25 24 23 22 21 20 19 18 16 14 14 13 11 9 7 6 5 4 3 2 2 1 3 6 5 13 23 21 38 69 80 82 73 64 71 63 60 75 73
5 6 8 10 15 20 25 30 34 39 42 43 43 41 39 37 35 34 34 32 29 26 24 24 24 24 24 23 24 25 27 30 33 36 39 41 44 46 47 47 46 44 43 41 38 37 35 34 32 30 29 27 26 24 23 22 20 19 16 15 14 12 11 9 7 6 5 4 3 3 2 2 4 6 7 15 25 31 47 73 89 76 69 84 75 64 75 79
5 6 8 11 15 19 23 27 31 34 35 34 30 26 24 22 21 20 19 18 17 16 16 17 17 18 19 18 16 15 14 15 17 19 22 26 29 34 38 41 44 45 45 45 43 42 41 40 38 36 34 32 30 28 27 26 23 21 18 17 15 14 13 11 9 8 6 6 4 3 3 2 1 6 6 5 20 33 37 55 83 85 72 73 77 86 91 83
5 5 7 9 12 15 17 18 19 19 18 16 14 14 15 16 17 18 18 17 17 17 18 18 19 20 22 24 23 19 16 15 13 12 13 14 15 18 23 27 32 36 40 42 43 43 43 42 42 40 38 36 35 33 31 29 27 24 21 19 17 15 14 12 10 9 8 6 6 4 2 3 1 2 7 5 9 24 38 47 65 80 79 71 71 90 102 91
4 5 6 7 9 11 11 12 12 11 11 11 13 16 18 19 19 19 18 18 20 22 23 24 24 24 24 28 31 29 26 21 18 17 14 13 13 13 14 16 19 23 28 32 36 39 40 41 41 40 39 38 37 36 35 33 30 28 25 22 20 18 15 13 12 9 9 8 6 6 4 3 3 1 3 6 5 8 25 40 51 65 75 76 72 79 93 91
4 4 5 6 8 9 10 10 11 11 11 12 16 19 21 22 22 22 22 24 27 30 33 34 33 32 30 31 34 35 34 30 25 23 21 18 16 16 15 15 15 16 18 22 26 30 34 36 38 38 38 37 37 36 35 34 34 31 29 26 22 20 17 14 13 11 10 9 7 7 6 4 2 3 1 4 7 5 8 18 34 53 63 72 76 77 82 75
4 4 5 6 7 8 10 10 11 11 12 15 19 22 23 23 24 28 32 36 37 38 40 40 41 41 39 36 36 38 42 40 33 29 28 25 21 20 19 19 17 16 15 17 20 23 26 29 32 34 35 35 35 35 34 33 34 33 31 30 26 23 20 17 15 13 11 9 9 9 8 6 3 3 2 2 4 6 6 3 15 39 57 67 71 79 83 70
4 4 4 6 7 9 10 11 12 12 13 15 19 23 23 24 28 35 40 43 44 43 43 44 46 48 49 45 41 43 45 44 42 38 35 32 27 23 23 24 22 19 16 15 17 21 23 25 26 28 30 32 33 33 32 31 31 31 31 30 29 26 22 19 17 14 13 11 10 11 9 6 5 3 2 3 2 5 7 3 4 18 45 69 69 73 85 77
4 3 4 6 7 9 10 12 12 12 14 16 19 22 24 27 32 38 41 44 47 50 51 54 56 55 57 55 49 48 48 48 50 45 40 40 36 28 26 27 27 24 21 17 16 20 25 26 26 27 27 28 29 30 30 30 30 29 29 28 28 27 25 23 20 17 16 14 12 11 9 7 6 4 2 2 2 3 5 6 4 1 24 66 74 68 83 91
4 3 4 5 7 9 10 12 12 13 14 15 18 21 26 31 34 39 41 44 51 57 60 64 67 65 65 63 59 58 57 55 55 49 47 50 46 37 31 31 32 29 24 23 22 23 27 30 29 28 28 27 27 27 27 28 28 28 27 27 25 25 24 23 22 20 17 16 14 11 10 8 7 6 4 3 2 2 4 5 7 1 9 50 79 75 81 99
3 4 4 4 7 9 11 12 12 14 14 15 19 23 31 34 37 44 44 49 57 61 65 69 74 76 72 69 67 64 63 63 64 62 63 62 55 49 42 37 36 33 28 29 33 34 36 38 37 33 31 30 27 27 26 25 26 26 25 25 25 24 23 23 21 21 19 16 15 13 11 9 7 6 4 4 3 2 4 4 6 6 2 23 63 80 80 91
4 4 4 4 6 8 11 13 13 15 15 18 22 28 35 37 43 47 46 53 59 62 70 73 78 81 76 74 73 69 67 69 71 71 73 73 66 59 54 47 40 36 32 35 46 56 60 59 56 49 42 40 37 33 29 26 25 24 24 24 24 23 22 21 20 19 19 16 15 13 12 10 8 7 5 4 4 2 3 4 5 7 4 4 27 62 78 84
4 4 4 4 5 7 10 12 15 17 19 23 27 32 37 40 45 47 47 53 57 61 70 76 84 87 78 77 79 74 71 71 73 76 79 81 78 71 66 59 48 39 34 38 54 70 79 78 74 69 64 62 58 51 41 31 26 24 23 22 22 23 22 21 20 18 17 16 15 14 12 11 8 7 6 5 5 4 2 2 5 5 7 2 4 44 81 83
4 4 4 4 4 6 9 12 15 17 20 24 28 34 39 42 46 48 52 57 60 64 72 81 91 92 82 80 81 75 71 69 73 86 93 91 90 85 81 74 59 44 36 37 51 70 81 78 79 84 80 70 62 59 54 43 36 29 24 22 21 21 21 20 19 18 17 15 14 13 12 11 9 8 7 6 5 7 5 1 4 4 6 5 -1 35 86 93
4 4 4 4 4 6 7 10 13 15 19 23 28 34 41 45 46 50 56 61 67 72 79 88 94 94 88 83 83 80 78 72 70 90 102 99 99 95 95 92 72 54 42 36 44 62 74 73 79 86 75 58 47 47 51 48 45 39 30 25 20 19 20 20 19 18 16 15 14 13 12 10 9 8 7 6 4 5 6 2 2 4 5 7 0 16 60 86
5 4 4 4 4 5 6 9 11 14 18 21 27 33 39 43 43 48 56 64 73 76 82 91 95 97 94 88 88 88 88 80 75 93 102 101 104 99 99 101 86 69 53 40 44 58 71 78 86 86 71 53 41 38 42 44 45 44 38 30 23 20 18 17 17 17 16 14 13 13 12 10 9 8 8 10 8 4 4 3 3 4 5 8 3 4 20 47
5 4 5 4 4 4 5 7 9 13 16 20 25 30 35 37 38 44 51 61 70 73 81 92 95 97 96 93 92 85 85 86 83 93 96 96 104 100 98 101 96 88 70 48 46 55 67 81 90 87 74 60 48 43 41 41 41 41 40 35 28 23 20 19 17 16 16 14 14 12 11 11 8 8 9 12 13 9 3 2 4 3 5 8 4 5 4 19
5 5 5 4 5 4 4 6 7 10 14 18 22 25 29 32 34 39 46 58 65 69 82 91 90 91 91 92 90 79 79 87 84 79 76 79 91 96 95 98 100 99 88 64 48 47 60 79 88 88 79 66 57 49 43 41 41 38 36 34 31 27 24 21 17 16 15 12 13 12 10 11 9 7 7 8 17 25 14 3 4 4 8 11 4 5 6 17
5 5 5 5 5 4 5 5 6 8 11 14 18 21 24 26 31 35 42 53 59 65 80 87 85 87 89 87 83 74 76 86 81 66 55 58 75 86 85 94 102 101 99 84 61 52 60 71 76 80 80 71 60 52 45 44 41 37 33 30 28 28 27 24 22 23 19 12 12 13 10 9 9 9 6 5 16 37 37 18 7 3 8 13 6 6 9 20
6 6 5 5 5 5 5 5 5 6 8 10 14 17 20 22 27 32 37 48 54 61 75 83 79 79 84 84 78 73 78 87 82 65 50 44 61 77 82 95 103 98 100 96 82 73 68 65 63 64 66 63 59 54 52 52 47 39 33 30 26 23 25 24 21 25 24 17 13 12 13 11 8 9 7 4 9 27 45 40 20 5 10 17 11 9 13 19
6 6 6 5 6 5 5 5 5 5 6 7 10 13 16 19 24 29 33 42 50 56 69 78 74 68 69 74 82 83 83 88 85 71 57 46 53 71 85 97 97 87 85 86 89 87 74 64 59 55 50 49 52 56 60 60 51 41 36 35 27 21 26 24 28 49 61 59 42 17 10 12 8 8 10 7 4 11 29 42 32 13 13 23 15 9 17 23
6 6 7 6 6 6 5 5 5 5 5 5 7 9 12 16 21 26 30 37 46 52 62 71 69 62 57 60 78 89 85 84 85 80 71 59 54 63 79 90 86 79 78 80 90 95 83 64 52 51 54 52 52 57 60 53 46 43 40 35 24 22 29 24 38 76 93 96 84 41 11 11 10 7 11 9 4 5 14 32 40 25 16 24 21 12 15 25
7 7 7 7 7 6 6 6 5 5 5 5 6 6 9 12 16 22 26 32 42 46 54 64 62 56 52 54 69 85 87 85 90 92 86 76 64 64 79 88 82 75 73 76 86 95 91 71 57 66 77 66 46 44 48 43 43 42 36 34 27 27 32 26 50 92 99 99 103 70 25 9 9 8 8 9 6 3 7 28 46 36 22 19 20 19 17 20
7 7 7 7 7 7 6 6 6 6 5 6 6 5 7 8 10 17 21 27 38 43 49 60 60 48 42 48 59 73 82 86 95 100 97 93 83 75 86 96 89 73 58 61 74 81 85 83 83 91 87 60 33 33 42 39 39 37 35 40 39 38 35 32 65 102 101 95 97 78 41 13 8 9 7 6 8 4 4 31 56 52 41 28 20 21 18 20
8 7 7 7 7 7 7 7 6 6 6 5 6 5 6 6 7 11 16 24 34 40 44 53 57 44 31 36 47 60 74 82 94 102 100 101 98 88 90 98 98 80 50 47 61 63 71 86 89 76 56 40 35 41 41 36 37 38 43 53 53 49 37 39 79 105 99 99 93 74 55 34 13 7 9 6 7 7 3 26 58 65 59 50 41 33 20 25
9 8 8 7 8 8 8 8 7 6 6 6 6 6 6 6 6 7 11 17 26 35 42 46 51 44 27 24 32 46 64 75 86 96 98 101 102 97 95 93 94 85 53 35 39 46 61 69 57 40 32 34 40 41 37 40 44 43 54 65 61 53 40 44 78 88 79 89 97 88 77 58 24 4 10 11 8 12 10 18 45 69 75 64 56 47 28 25
10 9 8 8 8 8 8 8 8 7 7 6 6 6 6 6 6 6 7 11 18 29 40 43 47 45 28 17 19 28 44 60 72 83 90 99 102 100 100 93 88 83 61 37 28 33 44 41 28 24 28 32 36 39 42 44 45 51 68 74 66 64 64 64 69 64 50 50 69 93 94 72 39 10 8 16 15 14 14 18 31 56 75 67 53 46 31 17
11 10 9 8 8 8 8 9 8 8 8 7 7 6 7 6 6 6 7 9 13 21 34 39 44 46 32 17 15 18 25 37 51 62 73 87 96 99 102 98 91 81 63 47 40 36 34 33 31 29 30 36 37 41 48 50 60 76 81 80 83 90 95 95 89 84 75 52 42 62 78 74 56 25 7 16 25 18 12 18 24 30 41 45 47 50 38 21
13 12 10 9 9 8 9 9 9 9 8 8 8 7 7 7 6 6 6 8 9 13 24 34 39 44 38 21 14 17 19 21 30 40 48 59 72 83 89 93 97 89 69 56 52 47 44 45 45 42 47 52 45 49 66 76 90 94 80 85 100 101 99 101 99 99 100 88 61 41 45 58 58 40 19 17 28 27 18 18 23 27 26 23 35 50 47 34
16 14 12 10 9 9 9 9 9 9 9 9 9 8 8 7 7 7 6 6 8 8 14 24 31 38 41 30 16 15 17 17 20 24 28 32 39 50 59 66 75 77 70 65 59 55 55 52 50 55 66 69 64 76 93 95 97 85 73 93 108 100 99 101 100 100 98 99 84 52 37 43 46 43 31 19 22 30 30 22 17 26 31 24 27 41 47 43
21 17 14 12 11 10 9 9 10 10 10 10 9 9 9 8 7 7 7 6 7 7 8 14 22 30 39 37 24 15 15 17 18 18 21 22 22 26 32 36 39 42 49 57 56 57 59 56 59 71 82 87 91 100 102 97 94 76 63 84 98 93 96 97 99 104 101 99 93 73 60 50 39 38 34 22 17 20 28 27 20 25 35 37 38 40 42 49
24 21 18 15 13 11 10 9 10 10 10 10 10 10 9 9 9 8 8 7 7 8 7 8 13 20 31 38 33 21 15 15 18 18 18 20 20 20 21 21 23 24 31 41 46 52 58 62 74 86 91 97 101 101 101 102 102 89 76 84 92 88 91 97 101 102 99 101 99 91 86 69 44 37 36 33 30 25 23 25 25 28 34 38 40 36 28 33
25 25 22 19 15 13 12 10 10 10 11 10 10 11 10 10 10 9 9 8 7 7 7 7 9 12 19 31 37 31 20 14 15 17 17 17 18 19 19 17 18 22 30 38 43 49 58 65 78 92 97 99 101 100 100 100 98 98 98 98 93 84 83 89 93 90 86 92 97 95 90 82 66 48 39 47 59 56 45 38 35 33 32 28 25 24 20 17
26 26 25 23 20 16 13 12 11 10 10 11 11 11 11 11 11 10 10 9 8 8 8 7 7 9 11 19 29 34 29 19 14 15 16 16 16 16 18 17 16 23 32 39 44 48 54 58 66 82 89 89 96 100 99 98 97 97 94 84 74 70 72 75 74 72 69 72 85 83 68 72 84 76 61 64 76 75 65 59 55 50 42 33 24 21 22 22
28 28 27 27 25 21 17 14 12 11 10 11 11 11 12 12 11 11 11 10 10 9 8 8 7 7 8 11 17 27 32 28 20 15 14 15 16 16 17 16 15 21 27 33 39 39 41 43 48 62 68 64 71 80 82 86 91 93 83 66 54 50 54 59 56 54 53 52 60 61 48 54 76 88 88 84 78 76 74 69 64 60 55 49 42 35 32 33
31 30 30 29 28 27 23 18 14 13 11 10 11 11 12 12 12 12 12 11 11 10 9 9 8 8 7 8 11 15 23 29 27 21 15 13 14 16 19 18 15 16 19 23 26 27 28 30 34 45 47 45 54 66 72 73 73 76 70 60 55 47 39 41 39 36 40 39 38 38 35 39 51 66 83 93 91 87 83 78 72 66 62 58 53 47 43 43
35 33 33 32 31 30 29 24 19 15 13 11 11 11 12 13 12 13 13 12 12 12 11 10 9 9 8 7 9 9 13 20 25 27 23 17 13 14 18 22 21 17 15 15 18 22 25 25 29 34 32 39 64 86 94 91 79 72 64 52 50 46 40 41 36 29 28 27 25 26 25 29 35 38 49 68 81 81 75 73 71 65 60 56 53 49 46 44
38 37 35 34 34 33 32 31 26 21 16 13 12 11 11 12 13 13 13 13 13 12 12 12 10 10 9 8 8 8 9 12 16 21 27 26 21 16 15 19 23 25 24 22 22 24 24 23 24 25 28 52 84 97 101 99 84 71 62 51 45 42 39 40 40 39 36 28 26 27 22 23 29 29 31 38 47 51 51 53 55 54 51 47 44 43 41 38
43 41 38 36 37 36 34 34 33 28 22 17 14 13 12 11 12 13 13 13 14 13 13 13 12 11 10 10 9 8 8 9 10 12 18 25 28 27 23 18 18 21 25 29 33 35 37 36 32 30 41 67 86 85 90 96 87 75 64 50 42 39 36 35 34 35 35 30 32 33 27 24 27 28 29 28 27 29 31 32 33 34 34 32 31 30 28 26
50 46 43 40 39 38 37 36 36 35 30 24 19 15 13 12 12 13 14 14 14 14 14 14 13 13 12 11 10 9 9 8 8 9 10 15 21 26 29 29 25 20 18 19 23 27 32 38 45 51 57 62 65 70 85 93 90 89 79 54 35 30 37 46 43 35 30 26 25 25 24 25 27 26 26 25 24 24 24 24 24 23 22 21 21 21 19 18
60 53 50 46 42 41 39 39 40 39 37 32 27 21 17 14 13 12 13 14 14 15 15 14 14 14 13 13 12 11 10 9 9 8 8 9 12 15 21 26 28 28 24 20 17 15 15 18 27 36 36 31 29 41 58 62 61 71 72 50 27 17 24 41 48 44 41 37 29 22 18 19 21 21 21 20 19 20 19 19 18 18 18 17 15 15 15 15
74 64 58 53 49 44 42 41 42 42 41 39 35 29 23 18 15 13 13 13 14 14 15 15 15 15 14 14 13 12 11 11 10 9 9 8 8 10 12 15 19 22 25 26 24 21 19 16 15 16 15 14 12 13 21 23 24 34 35 23 15 12 13 24 36 42 45 46 44 38 33 32 33 30 27 25 24 23 21 20 20 20 19 18 17 17 17 18
84 75 67 62 56 51 47 44 44 43 43 43 40 37 32 25 20 17 14 13 13 14 15 15 15 16 15 14 14 14 13 12 12 11 11 10 9 8 8 9 10 12 15 19 22 23 25 26 26 27 27 28 27 22 18 14 11 15 16 11 11 11 9 11 19 29 35 38 40 40 38 37 37 34 31 31 31 29 28 27 27 27 25 23 22 20 20 21
90 85 79 71 64 58 54 50 48 46 45 45 44 42 39 35 29 24 19 15 14 13 14 15 15 16 16 16 15 15 15 14 14 13 12 11 11 10 9 9 8 8 9 10 11 14 16 18 21 26 30 31 32 31 28 25 22 21 21 20 18 16 14 13 13 16 21 24 26 31 33 32 29 27 26 24 23 22 22 21 21 20 20 19 18 18 17 17
91 91 88 83 75 68 62 57 53 49 47 47 48 47 45 42 38 33 27 21 18 15 13 14 15 16 16 17 16 16 15 15 15 15 14 13 13 12 12 11 10 9 9 9 8 8 9 10 11 13 16 17 18 20 22 23 24 22 23 24 23 22 21 21 18 16 15 14 15 19 22 23 24 25 24 23 22 20 18 17 16 15 14 14 15 14 14 14
Wind_Speed
33 35 37 38 39 40 41 42 42 42 43 43 44 45 45 46 47 48 49 50 51 52 53 53 54 55 56 57 57 58 58 58 57 57 58 58 59 59 58 58 57 57 57 56 56 55 54 53 53 52 51 51 50 49 48 48 47 47 48 48 47 45 44 43 44 47 48 48 46 44 46 49 50 50 49 47 46 45 44 44 42 42 40 37 36 35 36 35
29 31 32 33 35 36 37 38 39 40 40 40 40 41 41 42 43 44 45 46 48 49 50 51 53 54 55 56 57 58 59 59 59 59 59 59 60 60 60 60 60 60 60 59 58 57 57 56 55 54 53 53 53 52 51 50 49 49 49 49 47 45 45 43 42 45 49 51 49 46 46 49 50 50 50 49 48 47 46 45 45 44 42 40 38 37 37 36
27 28 29 29 30 32 33 35 36 37 37 37 38 38 38 38 39 40 42 43 45 46 48 49 51 52 54 54 55 56 57 58 59 59 60 60 60 60 60 61 62 62 62 61 60 59 59 58 57 56 55 55 54 54 53 52 51 51 50 49 48 46 45 44 43 44 47 51 52 49 48 48 51 52 52 51 49 48 47 47 46 45 45 43 40 38 37 36
30 30 29 28 28 28 29 31 33 34 35 35 35 35 36 36 37 38 39 40 42 43 45 46 48 50 52 53 54 55 56 57 58 59 60 60 61 61 61 61 61 62 63 63 62 61 60 59 59 58 57 56 56 56 56 55 54 53 52 50 49 48 47 47 46 45 46 50 53 52 50 49 51 53 54 53 51 50 49 48 48 47 45 43 41 39 38 36
29 30 31 30 28 26 26 27 29 31 32 33 33 32 32 33 35 36 36 37 38 40 42 44 46 48 50 51 53 54 56 57 57 58 60 60 61 62 62 62 62 62 63 63 63 63 62 61 60 60 59 58 57 57 57 56 56 55 53 51 50 49 50 50 48 47 46 48 51 54 53 50 51 53 54 55 53 51 49 48 48 47 45 44 42 40 39 38
28 29 30 30 28 27 25 24 25 27 29 30 30 30 29 29 30 32 33 35 36 37 39 41 43 45 47 49 51 53 54 56 57 58 59 60 61 62 63 64 64 63 63 63 64 64 63 63 62 62 61 60 59 59 58 58 58 56 54 53 52 52 53 52 50 49 48 48 49 52 54 53 51 53 54 55 54 52 50 48 46 47 46 45 43 41 41 41
29 29 29 29 28 26 24 22 22 23 24 26 27 28 28 28 28 29 31 32 34 36 38 40 42 44 46 48 49 51 53 55 56 57 59 60 61 62 63 64 64 65 64 64 64 64 64 64 64 64 63 62 61 61 60 59 59 58 56 55 54 54 54 53 52 51 50 49 49 50 54 55 54 53 54 55 55 53 52 50 47 47 46 45 45 43 42 43
30 29 29 28 27 25 23 21 21 20 21 22 23 25 26 27 28 29 30 31 33 35 37 39 42 44 45 47 49 51 52 55 56 57 59 60 61 62 63 64 64 65 66 66 66 66 66 65 65 65 65 64 63 62 61 61 60 59 58 57 56 56 55 54 54 54 53 51 50 50 51 55 56 55 54 54 55 54 52 51 50 49 47 45 46 44 44 45
33 30 28 27 26 24 23 22 20 19 18 19 20 21 22 24 25 27 28 30 31 32 33 35 38 40 43 45 47 49 52 54 56 57 59 59 61 62 63 64 65 66 66 67 67 67 67 67 67 67 66 66 65 64 63 63 63 61 60 59 58 58 57 56 55 55 55 54 52 51 51 53 57 57 56 55 55 55 53 52 51 51 50 47 45 45 46 46
36 32 29 27 25 24 23 22 21 20 19 18 17 16 16 16 17 18 20 22 24 25 27 28 30 32 35 37 39 42 45 48 51 54 56 59 61 62 63 65 65 66 67 67 68 68 69 69 69 69 68 68 67 66 65 65 64 63 62 61 60 60 58 57 57 57 57 56 55 53 51 52 55 58 59 56 56 56 55 54 52 52 53 51 47 46 47 46
39 35 31 28 26 24 23 21 20 19 18 15 13 11 11 11 12 13 14 15 16 18 20 22 24 26 28 30 32 33 35 37 39 43 46 51 56 60 63 65 66 67 67 68 69 69 70 70 70 70 70 70 70 69 68 67 66 64 63 63 62 61 60 59 58 58 58 58 57 55 53 52 53 57 60 58 56 56 56 55 54 53 53 53 52 49 45 43
43 38 33 29 27 25 23 21 19 17 15 13 12 12 13 13 13 14 15 16 18 20 22 23 24 25 26 28 30 32 32 32 32 33 34 36 41 47 53 58 63 66 68 69 70 70 70 71 71 71 71 72 71 71 71 69 67 66 66 65 64 63 62 61 59 59 59 59 58 57 56 55 54 55 59 60 58 58 58 57 55 55 54 53 54 52 46 43
46 41 35 31 28 26 24 22 21 18 15 13 13 14 15 15 15 16 18 20 23 24 26 27 27 28 27 28 30 31 32 32 30 29 28 28 29 33 38 44 51 58 63 67 69 71 71 71 72 71 72 72 72 73 73 71 70 69 67 66 66 65 64 62 61 60 59 60 59 59 59 58 55 54 56 60 61 59 59 59 57 55 55 54 54 53 50 48
48 44 38 32 29 26 24 23 21 18 16 15 15 15 16 16 17 19 21 23 25 26 27 27 28 29 29 28 29 29 30 31 30 29 27 25 25 27 30 34 38 45 52 58 63 67 70 72 73 73 73 72 73 73 73 72 72 71 70 69 67 66 65 63 62 61 60 61 61 61 62 60 57 55 54 58 62 62 60 60 59 56 55 54 54 52 50 51
49 46 40 34 30 27 24 22 20 17 15 15 16 17 18 18 20 22 24 25 25 26 27 28 29 29 29 28 28 29 29 29 29 28 27 26 25 25 26 28 31 35 40 46 53 58 63 67 70 71 73 73 73 73 72 72 72 72 72 71 69 68 66 65 64 63 62 62 62 63 64 62 59 56 54 55 60 63 62 60 60 59 56 54 54 51 48 50
50 48 43 37 31 27 24 22 20 17 16 16 17 18 20 21 23 24 25 26 27 28 29 30 30 29 29 28 27 28 28 28 28 28 27 27 26 24 25 26 27 29 32 37 42 48 54 58 62 66 69 71 72 73 73 72 72 72 72 72 70 69 68 66 66 66 64 64 64 65 65 63 61 57 55 54 56 61 63 61 60 61 59 54 52 52 49 47
49 49 46 39 33 28 25 22 20 18 17 17 18 20 21 23 24 25 26 27 28 29 31 32 32 30 29 27 26 27 28 28 28 28 28 27 27 25 24 25 26 28 28 30 34 39 44 49 53 56 60 63 67 70 72 73 73 72 71 71 70 69 69 68 68 68 67 66 66 66 65 64 62 59 56 54 55 59 62 62 60 60 60 56 52 53 50 45
48 49 48 42 35 29 26 23 21 19 17 17 18 20 22 24 26 27 28 29 30 31 32 33 33 31 29 27 25 26 26 27 27 28 28 28 27 26 24 24 25 26 26 27 29 32 36 41 44 47 50 54 57 61 66 70 72 72 71 71 70 70 69 69 69 69 68 67 68 67 66 65 62 60 58 56 55 57 61 63 62 60 60 59 56 53 51 50
47 49 48 45 39 32 27 24 21 19 18 18 19 21 23 25 27 29 30 30 31 32 33 35 34 32 31 28 25 24 25 26 27 27 27 27 27 26 24 23 23 24 24 24 26 27 31 34 36 38 40 42 45 49 56 62 67 70 72 72 71 70 69 69 70 69 68 68 68 68 67 66 64 61 59 57 56 57 59 62 64 61 59 60 60 55 52 52
45 47 48 46 42 35 29 24 22 20 19 18 20 22 24 27 29 31 31 31 32 33 35 36 35 34 32 29 25 23 23 25 26 25 25 25 26 26 24 23 23 22 21 22 24 24 27 30 31 31 31 33 36 40 45 52 59 65 70 73 73 72 70 70 70 70 69 69 69 68 67 66 64 63 61 59 57 57 58 61 64 63 60 58 60 57 50 47
43 45 47 47 44 38 32 26 23 21 20 20 21 23 26 29 31 33 33 33 33 34 36 37 36 34 31 28 24 21 22 24 25 24 23 23 24 24 24 23 22 20 19 20 22 23 24 27 27 27 28 29 32 34 36 41 48 55 63 69 72 73 72 72 71 70 69 70 70 69 67 66 64 63 62 60 59 57 57 59 63 64 62 58 59 59 53 45
41 43 45 46 45 41 35 30 25 23 22 21 21 23 26 29 32 34 35 35 34 35 37 37 36 34 30 27 23 19 21 24 25 24 23 23 22 22 22 22 21 20 18 18 20 22 23 24 25 27 29 30 31 31 31 34 38 44 52 60 67 71 72 72 72 71 70 71 71 69 67 66 64 63 62 62 61 59 57 58 61 64 63 60 59 61 59 53
39 41 43 45 46 43 39 33 29 25 23 22 22 23 26 29 32 34 36 36 35 38 39 38 37 34 29 26 22 18 20 23 25 25 23 23 22 20 20 20 20 19 18 16 17 20 21 22 26 28 30 31 31 31 31 31 33 36 42 51 60 66 69 71 72 72 71 70 70 69 67 66 65 63 62 61 61 61 59 57 59 62 63 61 59 60 62 61
37 39 41 43 45 45 42 38 33 28 25 24 23 24 26 29 32 34 36 36 37 40 40 38 38 34 29 26 22 18 19 21 24 24 23 23 21 18 16 16 18 19 17 16 15 17 19 21 25 29 30 31 31 31 30 30 30 31 35 42 51 58 63 67 70 71 71 70 70 68 68 67 66 64 62 60 60 61 61 59 58 61 63 62 60 59 61 61
36 37 39 41 43 44 44 41 37 32 28 26 25 26 27 29 31 33 36 37 38 41 41 40 39 35 30 27 22 19 19 20 21 23 23 22 18 14 12 14 16 17 17 16 15 14 15 18 22 26 29 30 31 31 30 30 29 29 30 34 41 49 56 62 65 68 70 71 70 69 69 69 67 65 63 61 59 59 61 61 59 60 63 62 60 59 59 61
34 36 37 39 41 42 44 42 40 37 32 29 28 27 27 29 30 33 35 37 39 42 42 41 41 36 31 28 23 19 18 20 20 20 21 21 16 12 10 12 15 15 15 15 14 12 13 17 19 22 26 28 29 29 29 29 29 28 27 29 35 42 49 56 59 63 68 70 69 68 70 69 67 65 63 63 61 58 57 60 60 60 62 62 61 60 59 60
33 34 36 37 39 40 42 42 42 40 36 32 30 28 28 29 30 32 35 37 40 43 43 43 42 37 32 29 24 20 19 20 20 19 19 19 16 11 9 11 14 13 13 12 12 12 13 14 16 19 22 24 26 27 28 28 28 27 25 27 32 39 45 50 54 57 62 64 64 66 68 69 68 65 64 64 64 61 56 55 57 59 61 61 61 60 60 60
31 33 34 36 37 38 40 41 42 41 39 36 32 30 30 30 30 32 35 37 40 45 45 44 43 39 35 30 23 20 21 21 20 19 17 17 15 11 9 11 12 11 10 9 10 11 13 13 13 15 17 19 23 26 28 29 28 26 25 26 31 36 42 46 48 49 48 48 55 64 68 69 69 66 64 64 65 64 58 53 53 57 60 61 61 60 59 58
29 31 32 34 36 37 38 40 41 41 41 39 36 34 33 32 31 32 35 38 40 45 47 46 45 41 37 33 25 20 21 22 21 19 17 15 14 11 11 12 10 9 9 9 10 10 12 13 13 13 14 16 21 26 30 30 29 26 25 26 29 35 42 47 48 44 38 34 43 59 68 69 68 67 65 64 64 63 59 54 52 55 58 60 60 59 59 57
27 29 30 32 34 35 37 38 39 40 41 41 40 39 37 35 34 32 34 38 40 44 47 48 47 44 40 35 28 22 21 22 23 22 18 15 12 11 13 13 10 9 10 11 12 11 12 14 15 15 15 16 19 24 27 28 27 25 25 25 27 35 42 48 50 42 31 28 37 53 63 67 67 66 65 62 60 59 58 55 51 52 56 58 59 59 59 57
25 27 28 30 32 34 35 36 38 39 40 41 41 42 41 39 37 35 36 38 39 42 47 48 48 46 42 38 31 25 23 22 24 25 21 16 13 12 13 12 11 11 11 8 9 10 12 13 14 15 16 16 17 19 22 25 25 24 25 24 26 34 41 49 52 41 29 28 37 49 57 62 65 63 62 59 56 58 59 56 49 45 47 53 58 59 57 56
24 25 27 28 30 32 33 35 36 38 39 40 41 42 43 42 41 39 37 38 38 41 46 48 48 47 44 41 36 30 26 23 24 26 23 18 15 13 12 12 12 13 11 7 4 6 8 9 10 11 13 13 14 16 19 21 22 24 25 23 26 33 39 49 51 38 28 27 33 43 49 56 63 62 58 58 58 59 60 58 50 41 39 44 50 54 55 53
23 24 25 26 28 30 31 33 35 36 37 39 40 42 43 44 44 43 40 38 38 40 44 47 49 48 46 44 40 36 31 26 24 24 23 21 18 14 12 13 12 12 11 8 3 2 5 5 6 7 8 10 12 14 17 19 21 27 29 27 30 33 36 46 45 34 29 29 29 35 42 49 57 61 58 57 59 59 59 60 56 47 43 41 41 46 52 52
22 23 24 25 26 27 29 31 33 34 36 37 39 41 42 43 44 45 43 41 40 39 41 45 48 49 47 44 42 40 36 32 28 25 22 21 19 15 14 14 11 9 9 9 8 8 7 5 5 6 8 10 12 16 19 21 26 29 30 33 35 36 36 38 35 31 31 34 31 31 38 45 51 58 58 55 57 60 59 58 59 57 51 44 40 42 49 52
21 22 23 24 24 26 27 29 30 32 34 36 38 39 40 42 43 44 43 42 40 39 39 42 46 48 47 45 43 41 39 36 33 30 25 21 18 15 13 14 14 12 10 11 11 11 10 9 8 9 11 13 17 23 25 28 31 29 33 39 33 27 32 31 24 26 28 33 37 35 36 38 43 52 56 54 54 57 59 57 56 58 55 50 45 40 44 49
21 21 22 23 23 24 25 27 28 30 32 34 36 37 38 40 42 43 43 43 41 40 39 40 43 46 47 45 42 41 39 37 36 34 30 25 21 17 14 13 14 14 14 14 13 12 12 12 12 12 15 17 23 28 28 29 27 25 35 36 18 12 27 27 17 17 22 30 38 39 36 33 36 45 52 54 53 52 55 56 54 53 53 53 51 43 40 45
20 21 21 22 23 23 24 25 26 28 30 32 34 35 36 38 40 41 43 43 43 42 40 39 40 43 46 46 43 40 38 37 36 35 33 30 27 24 21 19 17 16 17 18 16 15 14 15 18 20 23 25 28 29 27 27 23 22 32 30 14 15 26 23 13 12 18 29 33 34 35 33 35 41 46 51 52 51 50 52 53 52 49 50 51 47 42 41
20 20 20 21 22 23 23 23 24 25 27 29 31 33 34 36 38 40 41 42 42 43 42 41 40 41 43 45 43 40 37 36 35 34 33 32 31 29 27 25 23 21 21 22 22 20 18 19 23 27 29 29 28 27 25 26 24 24 32 28 21 22 22 19 13 11 17 26 27 26 30 32 35 37 39 43 47 48 48 48 51 50 47 45 45 46 44 41
20 20 20 20 21 22 22 22 23 24 25 26 29 31 32 33 35 37 39 40 41 41 42 42 41 40 40 43 44 41 37 35 34 33 32 32 32 31 30 30 28 25 27 30 29 28 26 25 26 27 27 25 25 26 25 23 22 24 27 22 17 19 19 18 15 9 16 22 23 22 21 25 33 35 33 34 35 39 44 45 46 47 45 43 41 41 43 42
21 20 20 20 21 21 22 21 21 22 23 24 26 28 30 31 33 35 36 37 39 40 40 41 41 40 39 39 41 41 38 35 33 32 32 31 32 32 33 34 32 30 32 34 34 32 30 27 25 24 22 22 23 25 25 23 21 22 22 18 15 17 18 18 15 9 13 19 21 20 14 13 24 32 33 31 28 29 33 35 36 38 40 43 42 40 40 41
21 21 20 20 20 21 21 21 21 21 22 23 24 25 27 29 30 32 34 35 36 38 39 40 40 40 39 38 38 40 39 36 33 32 31 31 31 32 35 37 36 34 34 34 33 31 29 26 23 22 22 24 25 25 26 24 21 19 17 17 16 16 16 16 14 10 10 14 17 14 10 12 17 24 30 30 26 25 27 28 29 29 31 35 38 39 38 37
21 21 21 20 20 21 21 21 20 20 21 21 22 23 24 26 28 29 31 33 34 35 36 38 39 39 39 38 37 37 38 37 34 32 30 30 31 31 33 36 35 33 31 30 29 27 25 22 20 20 21 22 23 22 21 20 19 19 16 15 14 15 16 16 14 10 9 11 11 9 8 10 15 18 24 29 27 25 25 26 27 28 28 30 32 34 34 33
21 21 21 21 20 21 21 21 21 20 20 20 21 21 22 23 25 26 28 30 31 33 34 35 36 37 38 38 37 35 35 35 34 32 29 28 29 29 30 31 32 30 28 26 24 22 20 18 17 17 16 17 18 20 20 17 17 19 18 14 13 13 15 14 12 10 9 10 10 10 12 12 14 15 20 26 28 27 27 26 26 26 26 27 28 30 30 30
21 20 20 20 20 20 21 21 21 20 20 20 20 20 21 22 23 24 25 27 28 29 31 32 33 35 36 36 36 35 34 33 33 33 30 27 26 26 27 28 28 28 27 25 22 20 18 16 16 14 12 13 16 18 20 21 20 19 17 15 15 14 13 12 10 11 12 12 12 14 15 14 14 15 17 20 24 25 25 25 26 26 25 25 27 28 29 30
20 20 20 20 20 20 20 21 22 21 21 20 19 19 19 19 21 22 23 24 25 26 28 29 30 31 33 34 34 34 34 32 31 31 30 28 26 24 23 24 24 25 25 24 21 19 18 16 14 12 12 13 14 12 15 21 22 20 18 16 14 13 13 12 12 13 14 14 14 16 17 17 15 15 16 18 20 22 23 24 25 25 25 26 26 27 28 29
20 20 20 19 19 20 19 20 21 22 21 21 20 19 18 18 18 20 21 21 22 24 25 26 28 28 29 30 31 31 32 31 31 30 29 28 26 24 22 20 19 19 19 19 18 17 16 15 13 11 12 12 13 11 12 16 19 17 17 16 15 12 11 10 11 13 13 13 14 16 18 19 19 17 17 18 21 22 23 24 25 25 26 27 27 27 28 28
22 21 20 20 19 19 19 18 19 21 21 21 20 20 19 17 17 17 18 19 20 21 22 23 24 25 26 27 27 28 29 29 29 29 28 27 26 25 23 20 18 16 14 13 13 12 12 13 12 11 10 10 12 12 10 9 9 10 10 11 11 11 11 10 9 10 9 10 13 14 15 17 18 18 18 18 20 22 24 25 26 27 27 28 28 28 27 28
23 22 21 20 19 19 18 18 18 19 20 21 21 20 20 18 17 16 16 17 18 19 19 20 21 22 23 24 25 25 26 26 27 27 27 26 24 24 23 22 20 18 16 14 12 10 9 10 10 9 8 8 10 10 7 4 4 4 4 5 6 6 8 10 11 9 8 8 10 10 11 13 14 16 16 17 18 20 22 24 26 27 27 28 28 28 28 28
24 23 23 22 21 19 19 19 19 18 19 20 20 20 20 20 18 17 15 15 15 16 17 18 19 19 20 21 22 23 23 24 24 25 25 25 24 23 22 21 20 19 18 17 15 12 10 9 8 7 7 7 7 7 5 3 1 0 1 2 2 2 3 6 9 10 10 9 9 9 10 10 11 13 14 14 16 17 19 20 21 22 23 23 23 23 24 24
25 24 24 23 22 21 20 20 19 19 18 19 19 19 20 20 20 19 17 15 14 14 15 15 16 17 18 19 19 20 21 21 22 22 23 23 23 22 21 20 20 19 18 17 16 15 13 11 9 7 7 7 6 5 4 3 1 1 2 2 2 1 0 2 5 7 9 9 9 10 10 10 11 12 12 13 14 15 16 17 17 18 18 19 19 19 20 21
26 25 25 24 23 22 21 21 20 20 19 18 19 19 19 19 20 20 19 17 16 14 13 14 14 14 15 16 17 17 18 18 19 19 20 20 21 21 20 20 19 19 18 17 17 16 15 13 11 9 7 6 5 5 4 3 1 0 1 1 2 1 1 2 3 4 6 7 8 9 9 10 10 10 10 11 12 12 13 14 16 17 18 19 20 21 22 22
26 26 25 24 24 23 22 21 21 21 20 19 19 19 19 19 19 20 20 19 18 16 14 13 12 12 13 13 14 14 15 16 16 17 17 18 18 18 18 18 18 18 18 17 16 16 15 14 13 11 9 8 7 6 5 4 4 2 0 0 1 1 1 2 3 4 5 6 7 9 10 11 11 11 12 13 13 13 14 15 16 17 17 19 20 21 22 23
Wind_Direction
294 292 290 289 287 285 284 282 280 278 277 275 273 272 271 270 269 268 268 267 266 266 265 264 263 261 260 259 258 257 256 255 254 254 253 253 253 253 253 253 252 251 251 250 250 250 250 249 249 249 250 250 250 249 247 245 244 243 244 243 242 240 240 237 233 231 229 229 229 230 231 233 235 235 234 232 232 231 232 233 233 233 232 231 232 233 236 236
299 295 292 290 288 287 285 284 282 281 279 277 275 274 272 271 270 269 269 268 267 266 265 264 263 262 261 260 259 258 257 256 255 254 254 254 253 252 252 252 252 251 251 250 250 250 249 249 249 248 248 248 249 249 248 246 244 243 243 243 243 241 240 238 235 232 229 228 228 229 229 230 232 233 234 232 231 231 231 232 233 233 233 231 231 233 235 237
310 304 299 295 292 289 287 285 283 282 281 279 279 278 276 275 274 272 271 270 268 267 266 265 264 262 261 260 259 259 258 257 256 255 254 254 253 252 251 251 251 251 251 250 250 249 249 249 248 248 247 247 247 248 247 247 245 244 242 242 242 241 240 238 236 232 229 228 227 229 228 229 230 231 232 232 230 230 230 231 233 233 233 232 232 234 236 238
321 316 311 306 300 294 290 286 285 284 283 282 281 280 280 279 278 277 275 274 272 271 269 268 266 265 264 262 261 260 259 258 257 256 255 254 253 252 251 250 250 250 250 250 250 250 249 248 248 247 246 246 246 246 246 246 246 244 243 242 240 240 240 238 236 234 231 228 227 228 228 228 230 230 231 231 230 230 230 231 233 234 234 234 234 235 236 237
327 321 317 313 309 304 297 291 287 286 286 287 287 285 283 281 281 280 279 278 276 274 273 271 270 268 267 265 264 263 261 260 258 257 256 255 254 253 252 251 250 250 250 250 250 250 249 248 248 247 246 245 245 244 245 245 245 245 244 242 240 238 239 238 236 235 233 230 228 228 227 228 229 230 231 231 230 229 230 231 233 235 235 235 235 236 235 234
332 324 319 316 314 311 307 301 294 290 289 289 290 290 288 285 283 282 281 281 280 279 277 275 273 272 270 269 267 265 264 263 260 259 257 256 255 254 253 252 251 250 250 249 249 249 249 248 248 247 246 245 244 243 243 243 244 244 243 242 240 237 237 237 236 235 234 231 229 228 227 226 228 230 230 231 231 229 229 229 231 234 235 235 235 234 233 233
339 330 324 320 318 317 315 309 302 296 293 291 291 292 292 292 290 287 285 284 283 282 281 279 277 276 274 272 270 268 266 265 263 261 259 257 256 255 254 253 251 251 250 249 248 248 248 247 247 246 245 244 243 243 242 242 242 242 242 241 240 238 236 235 235 235 234 233 231 229 228 226 226 229 229 230 231 229 228 228 227 231 233 235 235 234 234 234
347 338 331 326 324 323 320 317 311 306 300 296 294 293 292 293 293 293 292 290 288 285 283 282 281 279 277 275 273 271 268 266 264 262 261 259 258 256 255 253 252 251 250 249 248 247 246 246 245 245 245 244 243 242 241 241 241 240 240 240 239 238 236 234 234 234 234 233 232 230 229 227 226 227 228 229 230 229 228 227 225 227 229 232 235 234 235 235
355 347 339 333 330 327 325 323 320 316 310 303 298 295 293 292 291 292 292 292 291 290 288 285 283 280 278 277 275 272 270 267 265 264 262 260 258 257 255 254 252 251 250 249 247 246 245 245 244 243 243 243 242 241 241 240 239 239 239 239 238 238 236 234 233 233 233 233 232 231 229 228 226 226 227 227 228 228 227 225 224 225 227 229 233 235 235 235
2 356 349 342 336 332 330 327 325 321 317 312 309 306 304 301 299 297 295 295 296 297 296 295 292 289 285 282 279 276 272 270 267 264 261 259 257 256 255 254 252 251 250 249 248 247 246 244 243 242 242 241 241 240 240 239 238 238 238 238 237 237 236 234 232 232 232 232 232 231 230 229 227 225 226 226 227 227 227 226 224 224 226 226 229 231 232 233
7 2 357 350 344 340 337 334 332 330 329 331 335 339 341 339 333 327 322 319 316 312 311 310 308 305 300 295 291 286 282 278 273 268 264 260 257 255 253 252 251 250 249 248 247 246 245 245 244 243 242 241 240 239 239 238 238 237 236 236 236 235 235 234 232 231 231 232 232 231 230 229 228 226 225 226 226 226 227 227 225 224 225 225 227 228 230 233
10 7 3 358 353 350 348 348 348 348 350 353 0 5 3 358 350 341 333 327 322 317 315 313 311 311 307 301 296 292 291 289 284 278 273 268 263 258 254 252 250 248 247 247 246 245 244 244 243 242 242 241 240 239 238 238 237 236 235 235 235 234 234 233 232 231 230 231 231 231 231 228 227 226 225 225 225 225 226 227 227 225 225 225 227 229 232 235
12 10 8 4 1 358 357 358 358 359 1 5 11 11 5 358 349 339 331 325 321 317 315 312 309 308 305 300 297 293 290 288 286 282 281 281 278 272 264 258 253 249 246 245 244 243 243 242 242 241 241 240 240 239 238 237 237 236 235 234 234 233 233 231 231 231 230 230 230 231 232 229 226 226 225 224 224 225 226 227 227 226 225 226 227 229 232 235
13 13 11 10 7 4 3 2 2 2 4 9 12 8 2 356 347 339 333 328 325 320 317 315 311 308 304 300 298 296 291 286 283 281 282 286 289 286 278 270 263 255 249 245 243 242 241 240 240 240 240 239 238 238 238 237 236 236 235 233 233 232 232 231 230 230 230 230 230 231 232 229 226 225 225 225 224 225 225 226 226 226 226 226 227 228 231 234
14 15 14 13 12 9 7 6 6 7 8 9 7 3 358 353 346 342 338 334 330 325 322 319 315 311 306 301 299 298 295 289 283 280 280 282 288 293 289 282 275 267 257 249 245 242 240 239 238 237 238 238 237 237 237 236 236 235 234 233 232 232 231 230 230 229 230 230 230 231 231 229 226 224 224 225 224 224 225 225 226 227 226 226 228 228 230 235
15 16 16 15 15 13 11 9 8 9 9 6 3 358 354 350 347 345 341 337 333 329 326 324 321 316 310 305 300 298 298 296 289 282 280 279 283 290 294 292 287 280 268 255 247 243 241 240 238 236 236 236 236 236 235 235 235 234 234 233 231 231 230 230 230 229 229 229 229 231 231 229 227 224 223 224 225 224 225 226 226 227 226 225 226 227 229 233
15 17 17 17 17 16 15 11 9 8 7 4 359 355 351 349 348 346 342 337 334 330 329 328 325 320 315 309 303 300 299 299 295 288 282 280 279 283 291 295 294 291 279 261 250 245 242 240 238 237 236 235 234 234 233 233 233 233 233 233 231 229 229 228 229 229 228 228 229 230 230 228 226 224 222 222 224 224 224 225 226 226 226 224 224 226 228 231
15 17 18 18 18 18 17 14 10 7 6 3 358 354 352 351 349 347 343 339 334 331 331 331 328 324 319 313 306 303 301 300 298 293 287 282 278 280 287 294 295 295 286 266 252 247 242 239 237 236 236 235 235 234 233 232 231 231 231 231 230 228 227 227 227 228 227 228 229 229 229 228 226 224 223 221 223 224 223 224 225 226 227 225 225 227 229 232
16 18 19 20 19 19 18 17 14 10 7 3 359 356 356 355 353 350 345 340 337 333 332 331 330 327 323 317 310 307 306 303 301 298 293 285 278 279 285 291 293 295 288 267 253 247 242 238 235 234 235 235 236 235 233 231 229 229 228 228 227 226 226 226 226 227 226 227 228 228 228 227 226 224 222 221 221 223 223 222 224 225 226 226 226 228 230 232
16 18 19 20 21 20 19 18 17 15 11 6 2 1 2 1 359 354 348 343 340 335 332 331 331 329 325 320 314 311 310 309 306 302 298 289 280 278 283 287 290 295 290 267 251 246 241 237 234 232 231 232 233 233 233 231 229 228 228 227 226 225 224 224 224 225 225 225 226 226 227 227 226 224 222 220 220 222 223 222 223 224 225 226 226 226 228 232
16 18 19 21 22 21 19 17 17 16 13 9 6 6 8 7 4 359 354 350 345 340 337 335 333 331 327 323 317 314 315 314 311 305 300 295 286 279 280 284 286 289 290 271 250 243 240 236 231 227 226 226 228 230 231 231 231 229 228 226 225 224 224 223 223 223 223 224 224 224 225 225 225 224 222 220 218 220 222 222 222 223 224 225 225 225 225 227
16 17 19 20 22 22 21 18 16 14 13 9 9 11 11 10 7 3 359 356 352 347 344 341 338 335 331 327 321 317 318 317 317 314 306 300 293 285 281 281 281 282 286 279 257 243 241 235 227 223 223 223 225 226 227 228 229 229 228 226 224 223 223 223 222 222 221 223 223 223 223 223 223 223 222 220 218 218 220 222 221 221 223 224 225 225 225 227
16 17 19 20 22 22 22 20 17 14 13 11 11 12 11 10 8 5 3 360 357 354 350 347 343 340 337 333 324 317 318 317 318 318 313 306 298 289 283 278 276 275 278 279 263 246 241 234 225 221 222 223 223 225 226 225 226 227 228 226 223 222 221 221 222 221 221 222 223 222 222 222 221 221 221 220 219 217 218 220 220 220 222 224 225 225 227 229
16 17 18 20 21 22 23 21 19 16 14 12 11 11 10 10 9 7 4 2 1 359 355 352 349 345 343 337 327 319 318 316 318 320 317 313 305 292 285 281 277 273 268 267 261 248 240 234 226 223 222 223 224 225 227 226 226 226 227 227 224 221 220 219 219 220 219 220 221 221 221 221 220 219 219 218 218 217 217 218 219 218 219 222 224 225 227 228
17 17 18 20 21 22 23 22 21 18 15 12 11 10 9 9 8 8 6 5 4 2 359 357 354 351 347 343 334 326 320 318 324 325 324 324 314 293 286 289 285 275 264 258 257 250 241 235 228 225 224 224 226 226 227 228 227 227 227 226 224 221 219 218 217 217 217 218 219 219 219 219 218 217 217 216 216 216 217 217 217 217 218 220 222 224 226 226
18 18 19 20 21 22 23 24 23 20 17 14 13 11 10 9 9 9 8 7 7 6 3 1 359 356 352 349 344 336 328 328 332 333 334 336 324 296 288 302 298 283 270 259 252 247 240 236 230 227 227 227 227 227 227 229 229 229 228 225 222 219 218 216 214 213 214 216 217 218 220 220 218 217 216 215 214 214 215 217 217 216 216 218 220 222 224 225
17 19 19 20 20 21 23 24 24 23 20 17 15 14 13 12 10 11 11 9 9 9 7 6 4 1 357 354 352 348 341 338 339 339 340 342 336 315 296 306 308 296 283 266 253 245 240 237 233 231 231 231 231 231 231 231 231 228 226 225 221 216 214 213 212 212 212 214 215 216 218 220 218 216 215 214 214 214 215 216 217 216 216 217 218 221 223 224
16 18 19 20 20 21 23 24 24 25 23 20 18 17 16 15 13 13 13 12 12 11 10 9 8 5 2 360 357 354 352 350 347 344 342 345 346 336 314 309 308 301 289 269 253 242 239 238 231 228 232 234 234 232 231 231 230 226 224 226 221 213 209 206 205 205 206 210 214 214 215 218 218 215 214 214 214 214 214 216 218 216 216 216 217 220 223 225
13 16 19 20 20 21 22 23 24 25 24 23 21 19 19 18 16 15 14 14 15 14 13 12 11 9 7 5 1 357 357 358 355 350 345 348 351 348 339 330 318 304 289 267 250 239 235 232 224 223 230 236 236 231 229 227 226 224 223 223 217 209 203 198 194 192 194 205 215 214 213 215 216 215 213 214 214 213 213 217 219 218 217 217 217 221 224 225
10 14 17 19 20 21 22 23 23 24 24 24 23 22 21 20 18 17 16 17 17 16 15 14 13 13 12 9 5 359 360 2 360 356 351 351 353 351 347 344 338 321 300 276 256 245 237 232 230 227 230 239 239 230 225 223 220 219 216 212 210 206 200 193 186 182 189 203 211 213 213 214 215 215 214 213 213 212 213 216 219 220 219 218 218 221 224 225
5 10 15 18 20 21 21 23 22 23 23 23 23 24 23 22 20 19 18 19 18 18 18 16 15 15 15 14 12 8 5 5 4 359 354 352 354 356 353 350 353 344 325 298 263 248 240 236 233 230 235 243 235 220 217 214 212 209 202 199 200 201 197 188 181 184 196 201 205 209 210 212 214 214 214 213 212 213 214 216 219 222 222 220 221 223 224 227
1 6 11 15 18 20 21 22 22 22 22 23 23 23 24 24 22 21 21 20 20 20 20 19 18 17 17 17 17 17 13 10 9 4 359 354 355 3 6 2 2 357 349 336 286 242 228 227 229 231 236 233 214 203 202 199 199 194 186 185 190 191 191 185 183 194 202 189 195 205 207 211 213 212 212 212 212 213 213 214 217 222 227 223 223 225 226 228
356 0 6 11 16 19 21 22 22 22 22 22 22 23 24 24 24 24 23 23 22 22 22 22 21 21 21 20 20 21 20 17 16 12 6 1 1 11 20 17 12 3 6 17 32 155 179 201 216 220 214 202 193 189 186 182 183 179 171 172 177 176 179 183 188 201 204 188 186 196 202 209 211 210 209 210 211 213 213 214 214 217 223 222 222 224 224 227
353 356 360 6 12 16 20 21 22 22 22 22 23 23 24 24 24 25 25 25 25 24 23 23 23 23 24 24 24 25 26 24 22 19 16 11 10 19 26 30 33 23 27 48 72 100 124 145 163 166 164 170 174 170 167 166 166 165 164 165 165 163 164 173 186 200 204 200 195 194 201 206 208 208 207 207 210 212 213 215 215 215 218 220 222 224 224 226
349 352 355 360 6 11 17 20 21 22 23 23 23 23 23 23 24 26 27 27 27 27 26 25 25 25 26 27 28 29 30 30 28 26 25 23 21 22 23 34 48 52 59 69 78 94 109 116 128 141 146 155 159 157 155 154 155 157 162 159 152 159 167 165 178 198 203 205 204 203 206 204 204 207 207 207 209 210 213 215 217 219 221 222 224 224 224 226
344 348 351 354 359 5 12 17 20 21 22 23 23 24 23 23 24 26 27 29 29 30 29 28 27 27 28 29 31 32 34 36 36 34 33 33 33 32 35 46 55 61 72 79 82 94 107 116 127 136 139 148 152 150 147 145 147 153 160 157 138 160 178 169 167 187 197 204 203 203 206 205 204 206 206 207 208 208 212 215 216 220 222 223 224 225 226 225
340 344 348 350 353 358 6 12 16 19 21 23 24 24 24 23 24 25 26 28 30 31 32 31 30 30 30 31 33 35 37 40 42 43 42 44 45 46 48 54 64 72 80 87 93 101 110 122 134 135 134 139 140 137 132 129 130 146 159 163 164 176 179 175 156 138 167 192 197 195 198 202 203 205 206 208 209 209 211 215 217 219 221 222 224 227 229 228
335 339 343 347 348 352 359 6 11 16 19 22 24 25 25 24 24 25 26 28 29 31 32 33 33 33 32 33 34 37 40 43 46 48 50 52 54 56 56 59 67 79 93 103 108 112 117 125 131 131 128 126 121 115 113 112 117 143 162 170 176 179 184 186 171 118 135 171 188 193 199 203 200 201 206 208 210 211 213 216 218 219 222 222 223 226 230 232
329 334 339 343 344 346 352 359 5 10 15 20 23 25 26 25 25 25 26 27 29 30 32 33 34 35 35 35 35 38 41 45 48 51 54 57 59 63 65 67 75 91 106 114 117 118 121 122 120 119 116 107 98 95 97 101 110 135 158 169 179 189 197 195 183 134 115 142 167 180 191 202 198 195 198 203 207 212 216 220 222 225 225 224 225 228 231 234
323 328 334 338 339 341 346 352 358 3 9 15 21 24 26 26 26 26 26 27 28 30 32 33 35 36 37 37 37 38 41 45 49 52 55 59 63 68 71 75 89 106 114 117 119 119 119 117 110 101 93 84 81 87 94 104 118 132 146 158 175 192 199 196 187 153 116 126 145 151 144 164 188 192 193 196 199 205 211 216 221 225 227 227 229 232 234 236
319 323 328 333 335 337 340 346 351 356 2 9 16 21 24 25 26 26 27 28 28 30 31 33 35 36 38 39 39 39 41 44 49 52 56 60 65 71 74 80 97 114 118 117 119 117 115 111 105 95 85 79 82 93 104 112 120 131 144 157 175 193 197 197 196 174 135 129 139 148 134 131 162 183 189 192 195 194 197 202 206 211 218 224 228 231 235 237
316 319 322 326 331 334 335 339 345 349 354 2 10 15 20 24 26 27 27 28 29 30 31 32 34 36 38 39 41 41 42 44 48 52 57 61 65 72 77 83 96 111 118 118 117 116 113 109 106 102 91 84 88 98 107 111 110 116 136 159 182 201 203 199 200 187 161 151 155 177 195 167 160 169 179 187 191 189 191 197 200 205 210 216 221 226 230 234
312 315 318 321 325 329 331 333 338 343 347 354 2 9 15 19 24 27 28 29 30 31 31 32 34 36 38 39 40 42 43 45 47 51 56 61 65 71 78 84 93 102 111 117 119 119 119 115 114 109 97 89 91 94 98 101 101 107 122 139 158 184 200 205 208 204 190 185 187 205 224 211 188 180 180 182 184 184 187 193 197 202 207 212 217 222 226 230
308 310 312 315 319 323 326 329 333 337 342 346 353 1 8 13 19 24 27 29 30 31 32 33 34 35 37 39 41 42 43 45 47 50 55 60 65 70 75 82 89 96 104 112 118 119 120 122 123 119 107 92 88 92 97 97 96 99 107 118 130 147 170 183 193 199 200 205 209 214 223 221 209 204 201 193 188 188 192 197 200 204 208 212 216 221 225 229
302 304 306 309 313 316 320 325 328 331 335 339 344 351 359 7 13 18 23 27 29 31 33 34 35 36 37 38 41 41 42 44 46 49 53 57 62 68 73 80 86 92 98 103 108 110 112 119 124 124 116 95 81 90 102 97 94 94 95 104 116 129 148 161 168 174 184 195 202 206 213 217 214 213 212 210 208 206 206 209 211 213 217 221 224 227 229 232
298 300 301 304 307 310 314 320 323 327 330 333 336 341 348 358 6 11 16 21 26 29 31 34 36 37 38 38 40 42 42 44 45 48 51 54 58 62 67 75 82 89 95 98 101 105 108 114 120 122 117 94 77 93 111 102 95 91 87 91 99 110 131 153 168 173 178 186 191 197 206 210 211 211 210 212 217 219 220 221 223 225 229 232 233 235 236 238
295 296 297 298 301 304 308 312 317 321 325 328 331 333 337 346 356 3 9 14 19 25 28 32 35 37 39 39 41 42 43 44 44 46 49 52 55 58 61 66 71 77 84 89 94 101 107 112 118 123 119 94 81 96 114 105 93 88 80 78 81 91 106 122 143 162 176 189 194 198 205 208 210 212 211 212 217 221 224 226 228 230 233 236 237 238 240 242
292 293 294 296 297 298 301 305 309 314 318 322 326 328 330 335 343 352 360 6 12 17 22 28 32 36 38 40 41 43 44 45 45 46 47 49 52 55 58 60 64 68 72 74 77 85 93 100 109 114 111 95 86 96 108 93 72 80 66 54 60 75 97 115 124 131 144 165 180 192 203 210 213 215 216 218 220 223 226 230 233 237 239 242 243 243 243 242
291 291 291 293 293 295 297 299 302 305 309 314 319 323 326 328 333 339 346 354 3 9 15 20 26 31 35 38 40 42 44 45 46 46 46 48 49 52 55 57 60 64 68 72 73 75 78 82 89 94 91 86 86 93 106 110 98 201 311 353 32 50 89 120 128 133 139 147 157 170 181 190 197 204 211 217 220 223 226 228 231 235 239 241 242 243 241 240
290 289 289 290 291 292 292 294 296 298 301 306 312 317 322 324 326 329 333 339 348 358 6 12 18 23 28 33 37 40 43 44 46 47 47 47 47 48 51 53 55 58 62 67 70 71 74 75 77 84 85 85 88 88 98 124 162 263 289 308 314 311 301 148 146 145 149 155 160 164 172 182 188 193 199 205 211 215 219 220 222 224 227 228 230 232 234 236
289 288 287 287 288 289 290 290 292 294 295 299 304 309 314 318 321 324 325 328 334 341 351 1 9 14 18 24 29 34 39 42 44 46 47 48 47 46 47 48 50 53 56 59 64 66 70 71 69 74 82 87 96 100 103 113 120 248 275 286 286 268 240 224 205 184 181 184 179 176 185 195 197 200 206 211 215 219 221 223 225 227 228 229 229 231 233 235
286 287 286 286 285 286 287 288 289 291 291 293 297 300 304 309 314 318 320 321 324 327 333 342 352 2 8 14 19 24 30 34 38 42 45 48 49 48 47 46 46 48 50 52 56 59 63 67 66 67 70 72 78 89 98 99 89 80 70 287 271 236 232 225 218 216 219 217 209 209 216 218 219 221 225 229 234 238 240 241 242 242 241 240 239 239 239 241